M I D A S
Marine Information and Data Acquisition System
Tripno 868 of the Zeeleeuw from 2005-03-22 08:14:00 to 2005-03-22 13:26:49
Back to CruiseResearch ActivitiesStationsMapUnderway DataData graphs

EquipmentUnitsComments
TimeDGPSUTC
LatitudeDGPSDM.mWGS84
LongitudeDGPSDM.mWGS84
SpeedMeteo Stationm/sRelative wind speed
DirectionMeteo StationdegRelative wind direction
TemperatureMeteo Stationdeg CelciusAir temperature
PressureMeteo StationPaAtmospheric pressure
HumidityMeteo Station%Relative humidity
Missing or incorrect values are displayed as -999
Metereological data collected by the RV Zeeleeuw from 2005-03-22 08:12:02 to 2005-03-22 13:35:43
                                                                                    Next 1000 lines
Time Latitude Longitude Speed Direction Temperature Pressure Humidity
2005-03-22 08:12:11 51°13.595 2°56.097 3.7 83 13 100530 59
2005-03-22 08:12:17 51°13.596 2°56.094 3.3 61 13 100530 59
2005-03-22 08:12:22 51°13.597 2°56.09 3.3 83 13 100530 60
2005-03-22 08:12:27 51°13.599 2°56.085 3.9 77 13 100530 60
2005-03-22 08:12:33 51°13.6 2°56.08 2.9 78 13 100530 60
2005-03-22 08:12:37 51°13.602 2°56.075 4 79 13 100530 60
2005-03-22 08:12:43 51°13.604 2°56.069 3.8 63 13 100530 60
2005-03-22 08:12:47 51°13.605 2°56.064 4.1 69 13 100530 60
2005-03-22 08:12:53 51°13.607 2°56.057 4.1 70 13 100530 60
2005-03-22 08:12:57 51°13.609 2°56.052 5.5 82 13 100530 60
2005-03-22 08:13:03 51°13.611 2°56.043 5.7 87 13 100530 60
2005-03-22 08:13:08 51°13.613 2°56.037 4.9 87 13 100530 60
2005-03-22 08:13:13 51°13.615 2°56.03 3.7 92 13 100530 60
2005-03-22 08:13:18 51°13.617 2°56.022 4.1 73 13 100530 60
2005-03-22 08:13:23 51°13.62 2°56.015 4.6 68 13 100530 59
2005-03-22 08:13:28 51°13.622 2°56.006 4.1 99 13 100530 59
2005-03-22 08:13:33 51°13.624 2°55.999 3.6 90 13 100530 59
2005-03-22 08:13:37 51°13.626 2°55.993 5 103 13 100530 59
2005-03-22 08:13:43 51°13.63 2°55.983 4.5 104 13 100530 60
2005-03-22 08:13:48 51°13.633 2°55.975 3.9 66 13 100530 60
2005-03-22 08:13:53 51°13.635 2°55.967 3.9 45 13 100530 60
2005-03-22 08:13:58 51°13.639 2°55.959 2.5 47 13 100530 60
2005-03-22 08:14:03 51°13.642 2°55.951 2.7 95 13 100530 60
2005-03-22 08:14:08 51°13.646 2°55.942 1.9 87 13 100530 60
2005-03-22 08:14:13 51°13.648 2°55.935 1.9 93 13 100520 60
2005-03-22 08:14:17 51°13.652 2°55.928 1.8 73 13 100520 60
2005-03-22 08:14:23 51°13.656 2°55.918 2.8 86 13 100530 60
2005-03-22 08:14:28 51°13.659 2°55.911 2.9 87 13 100530 60
2005-03-22 08:14:33 51°13.662 2°55.903 2.7 65 13.1 100520 60
2005-03-22 08:14:37 51°13.665 2°55.896 2.7 75 13.1 100520 60
2005-03-22 08:14:43 51°13.669 2°55.886 3.1 128 13 100530 60
2005-03-22 08:14:47 51°13.672 2°55.879 3.5 94 13 100530 60
2005-03-22 08:14:53 51°13.675 2°55.869 2.7 94 13 100530 60
2005-03-22 08:14:57 51°13.677 2°55.863 3.4 77 13 100530 60
2005-03-22 08:15:03 51°13.681 2°55.852 2.9 94 13.1 100530 60
2005-03-22 08:15:08 51°13.684 2°55.844 4.7 87 13.1 100530 60
2005-03-22 08:15:12 51°13.686 2°55.836 4.1 98 13.1 100520 59
2005-03-22 08:15:17 51°13.688 2°55.826 3.7 124 13.1 100520 59
2005-03-22 08:15:23 51°13.691 2°55.815 3.6 93 13.1 100530 59
2005-03-22 08:15:28 51°13.692 2°55.807 3.5 111 13.1 100530 59
2005-03-22 08:15:33 51°13.694 2°55.799 3.8 106 13.1 100530 59
2005-03-22 08:15:37 51°13.695 2°55.79 3.6 78 13.1 100530 59
2005-03-22 08:15:43 51°13.696 2°55.781 3.8 138 13.1 100520 59
2005-03-22 08:15:48 51°13.697 2°55.772 3.5 225 13.1 100520 59
2005-03-22 08:15:53 51°13.698 2°55.763 3.9 100 13.1 100530 59
2005-03-22 08:15:58 51°13.699 2°55.755 4.1 109 13.1 100530 59
2005-03-22 08:16:03 51°13.7 2°55.747 4.2 117 13.1 100520 59
2005-03-22 08:16:07 51°13.7 2°55.74 4.9 108 13.1 100520 59
2005-03-22 08:16:13 51°13.7 2°55.735 6.5 104 13.1 100530 59
2005-03-22 08:16:18 51°13.701 2°55.732 6.3 105 13.1 100530 59
2005-03-22 08:16:23 51°13.701 2°55.731 4.9 107 13.1 100530 59
2005-03-22 08:16:28 51°13.702 2°55.732 5.1 111 13.1 100530 59
2005-03-22 08:16:33 51°13.704 2°55.733 5.1 122 13.1 100520 59
2005-03-22 08:16:38 51°13.706 2°55.736 4.7 124 13.1 100520 59
2005-03-22 08:16:43 51°13.709 2°55.738 3.5 132 13.1 100530 59
2005-03-22 08:16:47 51°13.711 2°55.74 4 143 13.1 100530 59
2005-03-22 08:16:52 51°13.714 2°55.742 3.7 147 13.1 100520 59
2005-03-22 08:16:58 51°13.717 2°55.743 4.7 134 13.1 100520 59
2005-03-22 08:17:03 51°13.718 2°55.743 5.6 165 13.1 100520 59
2005-03-22 08:17:08 51°13.718 2°55.743 6 179 13.1 100520 59
2005-03-22 08:17:11 51°13.718 2°55.742 5 176 13.1 100520 59
2005-03-22 08:17:17 51°13.717 2°55.742 3.9 187 13.1 100520 59
2005-03-22 08:17:23 51°13.717 2°55.741 5.9 182 13.1 100520 59
2005-03-22 08:17:28 51°13.717 2°55.741 3.3 166 13.1 100520 59
2005-03-22 08:17:32 51°13.717 2°55.741 5.1 167 13.1 100530 59
2005-03-22 08:17:37 51°13.718 2°55.74 4.2 166 13.1 100530 59
2005-03-22 08:17:43 51°13.72 2°55.739 3.9 185 13.1 100530 59
2005-03-22 08:17:48 51°13.723 2°55.737 3.6 226 13.1 100530 59
2005-03-22 08:17:51 51°13.725 2°55.736 4.5 212 13.1 100530 59
2005-03-22 08:17:57 51°13.73 2°55.732 5 237 13.1 100530 59
2005-03-22 08:18:02 51°13.734 2°55.728 4.3 210 13.1 100530 59
2005-03-22 08:18:07 51°13.738 2°55.724 5.6 220 13.1 100530 59
2005-03-22 08:18:12 51°13.743 2°55.718 5.2 220 13.2 100530 59
2005-03-22 08:18:17 51°13.749 2°55.712 4.7 229 13.2 100530 59
2005-03-22 08:18:22 51°13.754 2°55.706 3.9 229 13.2 100530 59
2005-03-22 08:18:27 51°13.76 2°55.699 3.4 230 13.2 100530 59
2005-03-22 08:18:32 51°13.766 2°55.693 3.4 232 13.2 100530 59
2005-03-22 08:18:37 51°13.773 2°55.686 3.7 233 13.2 100530 59
2005-03-22 08:18:42 51°13.781 2°55.677 3.7 212 13.2 100530 59
2005-03-22 08:18:47 51°13.788 2°55.67 3.8 211 13.2 100530 59
2005-03-22 08:18:51 51°13.795 2°55.664 3.3 214 13.2 100530 59
2005-03-22 08:18:56 51°13.803 2°55.656 2.8 214 13.2 100530 59
2005-03-22 08:19:02 51°13.813 2°55.647 3.1 206 13.2 100530 59
2005-03-22 08:19:07 51°13.821 2°55.64 3.3 209 13.2 100530 59
2005-03-22 08:19:12 51°13.83 2°55.633 3.8 214 13.2 100530 59
2005-03-22 08:19:18 51°13.84 2°55.624 1.6 219 13.2 100530 59
2005-03-22 08:19:23 51°13.85 2°55.617 2.6 232 13.2 100530 59
2005-03-22 08:19:27 51°13.858 2°55.611 2.4 215 13.2 100530 59
2005-03-22 08:19:32 51°13.866 2°55.605 2.4 238 13.2 100530 59
2005-03-22 08:19:37 51°13.877 2°55.596 2.3 237 13.2 100530 59
2005-03-22 08:19:42 51°13.886 2°55.59 1.8 205 13.2 100530 59
2005-03-22 08:19:47 51°13.896 2°55.583 1.8 217 13.2 100530 59
2005-03-22 08:19:52 51°13.906 2°55.575 1.2 209 13.2 100530 59
2005-03-22 08:19:57 51°13.916 2°55.568 1.4 199 13.2 100530 59
2005-03-22 08:20:03 51°13.927 2°55.56 1.4 205 13.2 100530 59
2005-03-22 08:20:07 51°13.936 2°55.554 1.2 202 13.2 100530 59
2005-03-22 08:20:11 51°13.944 2°55.548 1.1 202 13.2 100520 59
2005-03-22 08:20:17 51°13.955 2°55.54 1.2 218 13.2 100520 59
2005-03-22 08:20:22 51°13.965 2°55.533 1.3 218 13.3 100530 59
2005-03-22 08:20:27 51°13.977 2°55.525 1.5 214 13.3 100530 59
2005-03-22 08:20:32 51°13.987 2°55.517 2 212 13.3 100530 59
2005-03-22 08:20:37 51°13.996 2°55.511 2.3 212 13.3 100530 59
2005-03-22 08:20:41 51°14.004 2°55.505 2 217 13.3 100530 59
2005-03-22 08:20:47 51°14.017 2°55.495 1.9 210 13.3 100530 59
2005-03-22 08:20:52 51°14.026 2°55.489 1 210 13.3 100530 59
2005-03-22 08:20:57 51°14.037 2°55.482 0.7 211 13.3 100530 59
2005-03-22 08:21:03 51°14.049 2°55.473 0.9 206 13.3 100530 59
2005-03-22 08:21:07 51°14.058 2°55.467 1.4 189 13.3 100530 59
2005-03-22 08:21:13 51°14.069 2°55.458 1.5 171 13.3 100530 59
2005-03-22 08:21:18 51°14.079 2°55.451 1 187 13.3 100530 59
2005-03-22 08:21:22 51°14.088 2°55.444 2.2 213 13.3 100520 59
2005-03-22 08:21:27 51°14.098 2°55.436 1.5 219 13.3 100520 59
2005-03-22 08:21:32 51°14.108 2°55.427 1 235 13.3 100520 59
2005-03-22 08:21:37 51°14.118 2°55.419 2.2 236 13.3 100520 59
2005-03-22 08:21:42 51°14.127 2°55.41 3.3 234 13.3 100530 59
2005-03-22 08:21:47 51°14.137 2°55.401 2.1 220 13.3 100530 59
2005-03-22 08:21:52 51°14.145 2°55.392 3.1 225 13.3 100530 59
2005-03-22 08:21:57 51°14.154 2°55.383 2.9 232 13.3 100530 59
2005-03-22 08:22:03 51°14.165 2°55.371 2.3 236 13.3 100530 59
2005-03-22 08:22:08 51°14.174 2°55.36 2.5 259 13.3 100530 59
2005-03-22 08:22:11 51°14.18 2°55.353 3 290 13.3 100530 59
2005-03-22 08:22:17 51°14.19 2°55.339 3.1 267 13.3 100530 59
2005-03-22 08:22:22 51°14.198 2°55.328 2.5 263 13.3 100530 58
2005-03-22 08:22:27 51°14.207 2°55.316 2.8 260 13.3 100530 58
2005-03-22 08:22:31 51°14.214 2°55.306 2.2 258 13.3 100520 58
2005-03-22 08:22:37 51°14.225 2°55.288 2 252 13.3 100520 58
2005-03-22 08:22:42 51°14.234 2°55.274 2.7 306 13.3 100530 59
2005-03-22 08:22:47 51°14.242 2°55.26 2.9 293 13.3 100530 59
2005-03-22 08:22:52 51°14.25 2°55.248 3.1 278 13.3 100530 59
2005-03-22 08:22:57 51°14.258 2°55.234 2.3 250 13.3 100530 59
2005-03-22 08:23:02 51°14.267 2°55.219 2 285 13.3 100530 58
2005-03-22 08:23:07 51°14.274 2°55.205 2.2 252 13.3 100530 58
2005-03-22 08:23:12 51°14.28 2°55.192 2.8 244 13.3 100520 59
2005-03-22 08:23:17 51°14.288 2°55.177 3.5 242 13.3 100520 59
2005-03-22 08:23:22 51°14.295 2°55.164 2.8 251 13.3 100520 59
2005-03-22 08:23:27 51°14.302 2°55.15 2.5 258 13.3 100520 59
2005-03-22 08:23:31 51°14.307 2°55.139 2.8 251 13.3 100520 58
2005-03-22 08:23:36 51°14.314 2°55.126 2.3 256 13.3 100520 58
2005-03-22 08:23:41 51°14.32 2°55.114 1.9 259 13.3 100520 58
2005-03-22 08:23:47 51°14.329 2°55.096 1.6 266 13.3 100520 58
2005-03-22 08:23:52 51°14.336 2°55.083 1.5 254 13.3 100530 58
2005-03-22 08:23:57 51°14.343 2°55.068 1.8 242 13.3 100530 58
2005-03-22 08:24:03 51°14.353 2°55.05 1.6 241 13.3 100520 58
2005-03-22 08:24:07 51°14.361 2°55.036 1.4 8 13.3 100520 58
2005-03-22 08:24:12 51°14.369 2°55.023 2.4 341 13.3 100520 58
2005-03-22 08:24:17 51°14.38 2°55.006 2.1 300 13.3 100520 58
2005-03-22 08:24:23 51°14.391 2°54.99 1.5 293 13.3 100520 58
2005-03-22 08:24:27 51°14.401 2°54.976 1.7 42 13.3 100520 58
2005-03-22 08:24:31 51°14.409 2°54.963 2.2 319 13.3 100530 58
2005-03-22 08:24:37 51°14.422 2°54.945 3 265 13.3 100530 58
2005-03-22 08:24:41 51°14.432 2°54.93 3.5 297 13.3 100520 59
2005-03-22 08:24:48 51°14.445 2°54.906 4.3 293 13.3 100520 59
2005-03-22 08:24:51 51°14.452 2°54.893 3.5 290 13.3 100520 58
2005-03-22 08:24:56 51°14.462 2°54.872 5.1 277 13.3 100520 58
2005-03-22 08:25:03 51°14.473 2°54.844 5.3 279 13.3 100520 58
2005-03-22 08:25:07 51°14.48 2°54.824 6 299 13.3 100520 58
2005-03-22 08:25:13 51°14.487 2°54.799 7.2 301 13.3 100520 58
2005-03-22 08:25:17 51°14.491 2°54.78 6.3 294 13.3 100520 58
2005-03-22 08:25:22 51°14.496 2°54.753 7.5 290 13.3 100510 58
2005-03-22 08:25:27 51°14.5 2°54.727 8.7 304 13.3 100510 58
2005-03-22 08:25:33 51°14.504 2°54.699 9.3 306 13.3 100510 58
2005-03-22 08:25:37 51°14.506 2°54.674 9.7 307 13.3 100510 58
2005-03-22 08:25:42 51°14.508 2°54.648 8.2 312 13.4 100520 58
2005-03-22 08:25:47 51°14.509 2°54.62 7.9 304 13.4 100520 58
2005-03-22 08:25:53 51°14.51 2°54.589 8.7 313 13.3 100510 58
2005-03-22 08:25:57 51°14.511 2°54.564 9.1 228 13.3 100510 58
2005-03-22 08:26:03 51°14.511 2°54.534 9.8 315 13.3 100510 58
2005-03-22 08:26:07 51°14.51 2°54.508 9.5 303 13.3 100510 58
2005-03-22 08:26:11 51°14.509 2°54.486 9 312 13.3 100510 58
2005-03-22 08:26:17 51°14.506 2°54.452 10.9 316 13.3 100510 58
2005-03-22 08:26:23 51°14.504 2°54.422 11.9 319 13.3 100500 58
2005-03-22 08:26:27 51°14.501 2°54.397 11.5 313 13.3 100500 58
2005-03-22 08:26:32 51°14.497 2°54.372 11.8 312 13.3 100500 59
2005-03-22 08:26:38 51°14.492 2°54.339 11.1 311 13.3 100500 59
2005-03-22 08:26:42 51°14.489 2°54.317 11.6 314 13.3 100490 59
2005-03-22 08:26:47 51°14.484 2°54.29 11.7 40 13.3 100490 59
2005-03-22 08:26:53 51°14.477 2°54.258 12.1 314 13.3 100480 59
2005-03-22 08:26:57 51°14.472 2°54.237 11.5 319 13.3 100480 59
2005-03-22 08:27:02 51°14.465 2°54.208 11.3 323 13.2 100480 59
2005-03-22 08:27:07 51°14.459 2°54.182 11 323 13.2 100480 59
2005-03-22 08:27:12 51°14.453 2°54.156 12.1 317 13.2 100470 59
2005-03-22 08:27:17 51°14.446 2°54.129 11.9 318 13.2 100470 59
2005-03-22 08:27:22 51°14.439 2°54.104 12 318 13.2 100480 59
2005-03-22 08:27:27 51°14.432 2°54.078 11.5 42 13.2 100480 59
2005-03-22 08:27:33 51°14.422 2°54.051 11.4 321 13.2 100480 59
2005-03-22 08:27:37 51°14.415 2°54.032 12 321 13.2 100480 59
2005-03-22 08:27:42 51°14.405 2°54.006 12.3 320 13.1 100470 59
2005-03-22 08:27:47 51°14.395 2°53.983 12.8 328 13.1 100470 59
2005-03-22 08:27:52 51°14.386 2°53.959 13.2 322 13.1 100470 59
2005-03-22 08:27:57 51°14.376 2°53.935 13.6 325 13.1 100470 59
2005-03-22 08:28:02 51°14.367 2°53.912 13.1 320 13.1 100480 59
2005-03-22 08:28:07 51°14.358 2°53.888 12 327 13.1 100480 59
2005-03-22 08:28:13 51°14.347 2°53.862 13.8 323 13.1 100470 60
2005-03-22 08:28:17 51°14.34 2°53.843 13.1 323 13.1 100470 60
2005-03-22 08:28:22 51°14.329 2°53.817 14.2 319 13.1 100470 60
2005-03-22 08:28:27 51°14.32 2°53.793 13.4 321 13.1 100470 60
2005-03-22 08:28:32 51°14.31 2°53.769 13.7 317 13 100470 60
2005-03-22 08:28:37 51°14.301 2°53.745 13.3 322 13 100470 60
2005-03-22 08:28:43 51°14.291 2°53.719 12.6 321 13 100470 60
2005-03-22 08:28:47 51°14.282 2°53.698 12.1 323 13 100470 60
2005-03-22 08:28:52 51°14.274 2°53.675 13.1 322 13 100450 60
2005-03-22 08:28:57 51°14.265 2°53.652 13.6 317 13 100450 60
2005-03-22 08:29:03 51°14.254 2°53.623 12.1 39 13 100470 60
2005-03-22 08:29:07 51°14.246 2°53.601 13.8 227 13 100470 60
2005-03-22 08:29:12 51°14.238 2°53.579 14.7 311 13 100470 60
2005-03-22 08:29:17 51°14.227 2°53.553 11.8 324 13 100470 60
2005-03-22 08:29:22 51°14.218 2°53.529 15 326 12.9 100460 60
2005-03-22 08:29:27 51°14.209 2°53.505 13.7 321 12.9 100460 60
2005-03-22 08:29:33 51°14.199 2°53.479 12.8 321 12.9 100460 60
2005-03-22 08:29:37 51°14.192 2°53.459 12.4 317 12.9 100460 60
2005-03-22 08:29:42 51°14.181 2°53.433 11.8 325 12.9 100460 60
2005-03-22 08:29:47 51°14.172 2°53.409 14.6 324 12.9 100460 60
2005-03-22 08:29:52 51°14.164 2°53.387 13.7 321 12.9 100470 60
2005-03-22 08:29:57 51°14.155 2°53.363 11.9 316 12.9 100470 60
2005-03-22 08:30:03 51°14.144 2°53.334 11.7 41 12.9 100450 60
2005-03-22 08:30:07 51°14.137 2°53.312 13.7 229 12.9 100450 60
2005-03-22 08:30:13 51°14.127 2°53.285 13.4 315 12.9 100480 60
2005-03-22 08:30:17 51°14.119 2°53.263 13.1 316 12.9 100480 60
2005-03-22 08:30:22 51°14.109 2°53.239 14.4 37 12.9 100450 60
2005-03-22 08:30:27 51°14.1 2°53.215 15.1 318 12.9 100450 60
2005-03-22 08:30:33 51°14.09 2°53.189 13 42 12.9 100450 60
2005-03-22 08:30:37 51°14.083 2°53.169 13.4 317 12.9 100450 60
2005-03-22 08:30:43 51°14.072 2°53.141 13.1 43 12.9 100460 60
2005-03-22 08:30:47 51°14.063 2°53.119 13.7 41 12.9 100460 60
2005-03-22 08:30:51 51°14.056 2°53.1 12.4 317 12.9 100460 60
2005-03-22 08:30:57 51°14.046 2°53.073 13.4 319 12.9 100460 60
2005-03-22 08:31:02 51°14.036 2°53.047 12.3 319 12.9 100460 60
2005-03-22 08:31:07 51°14.027 2°53.023 12.9 318 12.9 100460 60
2005-03-22 08:31:13 51°14.017 2°52.996 13 320 12.9 100450 60
2005-03-22 08:31:17 51°14.008 2°52.974 12 42 12.9 100450 60
2005-03-22 08:31:22 51°13.999 2°52.95 11.4 317 12.9 100470 60
2005-03-22 08:31:27 51°13.99 2°52.926 13 320 12.9 100470 60
2005-03-22 08:31:32 51°13.982 2°52.904 11.2 320 12.9 100470 60
2005-03-22 08:31:37 51°13.973 2°52.88 11.8 323 12.9 100470 60
2005-03-22 08:31:42 51°13.962 2°52.853 12.8 323 12.9 100460 61
2005-03-22 08:31:47 51°13.953 2°52.829 13.2 323 12.9 100460 61
2005-03-22 08:31:51 51°13.946 2°52.809 14.5 320 12.9 100470 61
2005-03-22 08:31:56 51°13.937 2°52.785 13.3 316 12.9 100470 61
2005-03-22 08:32:01 51°13.928 2°52.763 12.3 315 12.9 100460 61
2005-03-22 08:32:07 51°13.917 2°52.732 11.5 42 12.9 100460 61
2005-03-22 08:32:13 51°13.907 2°52.705 11.9 319 12.8 100470 61
2005-03-22 08:32:17 51°13.9 2°52.685 13.7 320 12.8 100470 61
2005-03-22 08:32:23 51°13.889 2°52.656 11.7 44 12.9 100460 61
2005-03-22 08:32:27 51°13.881 2°52.634 12.5 42 12.9 100460 61
2005-03-22 08:32:33 51°13.871 2°52.607 11.5 228 12.8 100460 61
2005-03-22 08:32:38 51°13.861 2°52.583 11.5 315 12.8 100460 61
2005-03-22 08:32:43 51°13.852 2°52.559 13.2 317 12.9 100460 61
2005-03-22 08:32:47 51°13.844 2°52.537 13 317 12.9 100460 61
2005-03-22 08:32:51 51°13.837 2°52.517 11.7 43 12.8 100470 61
2005-03-22 08:32:56 51°13.828 2°52.493 12.8 317 12.8 100470 61
2005-03-22 08:33:02 51°13.817 2°52.464 14 43 12.8 100460 61
2005-03-22 08:33:07 51°13.808 2°52.439 13.7 311 12.8 100460 61
2005-03-22 08:33:11 51°13.801 2°52.42 13.7 312 12.8 100470 61
2005-03-22 08:33:17 51°13.791 2°52.393 11.9 313 12.8 100470 61
2005-03-22 08:33:22 51°13.782 2°52.369 12.1 230 12.8 100460 61
2005-03-22 08:33:27 51°13.772 2°52.342 11.2 41 12.8 100460 61
2005-03-22 08:33:33 51°13.762 2°52.315 10.8 43 12.8 100460 61
2005-03-22 08:33:37 51°13.753 2°52.293 10.6 227 12.8 100460 61
2005-03-22 08:33:41 51°13.747 2°52.277 11.1 319 12.8 100460 61
2005-03-22 08:33:47 51°13.735 2°52.245 12 318 12.8 100460 61
2005-03-22 08:33:52 51°13.727 2°52.223 12.5 322 12.8 100470 61
2005-03-22 08:33:57 51°13.717 2°52.196 12.8 317 12.8 100470 61
2005-03-22 08:34:02 51°13.708 2°52.172 10.9 320 12.8 100470 61
2005-03-22 08:34:07 51°13.699 2°52.147 12.4 314 12.8 100470 61
2005-03-22 08:34:12 51°13.691 2°52.125 12.1 315 12.8 100470 61
2005-03-22 08:34:17 51°13.681 2°52.098 11.5 316 12.8 100470 61
2005-03-22 08:34:22 51°13.672 2°52.074 11.9 227 12.8 100460 62
2005-03-22 08:34:27 51°13.663 2°52.05 10.8 314 12.8 100460 62
2005-03-22 08:34:33 51°13.653 2°52.023 10.4 319 12.8 100470 61
2005-03-22 08:34:37 51°13.646 2°52.004 11 319 12.8 100470 61
2005-03-22 08:34:42 51°13.635 2°51.977 12 318 12.8 100480 62
2005-03-22 08:34:47 51°13.627 2°51.952 12 230 12.8 100480 62
2005-03-22 08:34:52 51°13.618 2°51.931 12 314 12.8 100460 62
2005-03-22 08:34:57 51°13.609 2°51.903 11.2 316 12.8 100460 62
2005-03-22 08:35:02 51°13.6 2°51.879 11.3 318 12.8 100480 62
2005-03-22 08:35:07 51°13.591 2°51.855 10.8 317 12.8 100480 62
2005-03-22 08:35:12 51°13.583 2°51.833 12.3 231 12.7 100470 62
2005-03-22 08:35:18 51°13.572 2°51.804 11.1 318 12.7 100470 62
2005-03-22 08:35:23 51°13.563 2°51.78 11.4 318 12.7 100470 62
2005-03-22 08:35:27 51°13.554 2°51.758 11.2 227 12.7 100470 62
2005-03-22 08:35:31 51°13.548 2°51.738 10.9 318 12.7 100470 62
2005-03-22 08:35:38 51°13.536 2°51.707 10.7 319 12.7 100470 62
2005-03-22 08:35:43 51°13.526 2°51.682 11.8 314 12.7 100470 62
2005-03-22 08:35:47 51°13.519 2°51.663 11.2 37 12.7 100470 62
2005-03-22 08:35:51 51°13.512 2°51.643 11.6 318 12.7 100470 62
2005-03-22 08:35:57 51°13.5 2°51.611 10.7 320 12.7 100470 62
2005-03-22 08:36:03 51°13.49 2°51.586 12.1 317 12.7 100480 62
2005-03-22 08:36:07 51°13.482 2°51.563 10.9 318 12.7 100480 62
2005-03-22 08:36:13 51°13.472 2°51.537 12.6 317 12.7 100470 62
2005-03-22 08:36:18 51°13.463 2°51.512 12.7 317 12.7 100470 62
2005-03-22 08:36:22 51°13.455 2°51.491 11.8 314 12.7 100470 63
2005-03-22 08:36:27 51°13.446 2°51.466 11.6 228 12.7 100470 63
2005-03-22 08:36:32 51°13.437 2°51.442 11 43 12.7 100460 62
2005-03-22 08:36:37 51°13.428 2°51.417 11.3 317 12.7 100460 62
2005-03-22 08:36:42 51°13.419 2°51.393 11.7 315 12.7 100470 63
2005-03-22 08:36:47 51°13.41 2°51.369 11.4 317 12.7 100470 63
2005-03-22 08:36:53 51°13.4 2°51.343 11.6 320 12.6 100470 63
2005-03-22 08:36:57 51°13.393 2°51.323 11 320 12.6 100470 63
2005-03-22 08:37:01 51°13.385 2°51.301 11.4 318 12.6 100470 63
2005-03-22 08:37:07 51°13.374 2°51.272 10.8 318 12.6 100470 63
2005-03-22 08:37:13 51°13.365 2°51.245 12.2 320 12.6 100470 62
2005-03-22 08:37:18 51°13.356 2°51.22 11.7 315 12.6 100470 62
2005-03-22 08:37:22 51°13.348 2°51.198 11.8 316 12.6 100470 63
2005-03-22 08:37:27 51°13.339 2°51.174 12.9 40 12.6 100470 63
2005-03-22 08:37:32 51°13.33 2°51.15 12.4 43 12.6 100470 63
2005-03-22 08:37:37 51°13.322 2°51.129 11.8 319 12.6 100470 63
2005-03-22 08:37:42 51°13.312 2°51.102 10.8 318 12.6 100460 63
2005-03-22 08:37:47 51°13.303 2°51.078 10.8 319 12.6 100460 63
2005-03-22 08:37:52 51°13.295 2°51.056 11.3 319 12.6 100470 63
2005-03-22 08:37:57 51°13.285 2°51.029 10.9 317 12.6 100470 63
2005-03-22 08:38:03 51°13.275 2°51.003 12 318 12.7 100460 63
2005-03-22 08:38:07 51°13.267 2°50.981 11.2 42 12.7 100460 63
2005-03-22 08:38:12 51°13.258 2°50.957 10.7 317 12.6 100470 63
2005-03-22 08:38:17 51°13.249 2°50.932 11.4 43 12.6 100470 63
2005-03-22 08:38:23 51°13.239 2°50.906 11.6 318 12.6 100470 63
2005-03-22 08:38:27 51°13.231 2°50.884 11.5 316 12.6 100470 63
2005-03-22 08:38:33 51°13.221 2°50.858 11.1 318 12.7 100460 63
2005-03-22 08:38:37 51°13.213 2°50.835 11.4 319 12.7 100460 63
2005-03-22 08:38:43 51°13.203 2°50.809 11 43 12.7 100470 63
2005-03-22 08:38:47 51°13.195 2°50.787 11.4 320 12.7 100470 63
2005-03-22 08:38:52 51°13.186 2°50.763 10.7 317 12.6 100460 63
2005-03-22 08:38:57 51°13.178 2°50.741 10.4 315 12.6 100460 63
2005-03-22 08:39:01 51°13.171 2°50.722 11.7 41 12.7 100470 63
2005-03-22 08:39:07 51°13.159 2°50.69 12.2 317 12.7 100470 63
2005-03-22 08:39:13 51°13.149 2°50.664 11.4 318 12.7 100470 63
2005-03-22 08:39:17 51°13.142 2°50.645 11.2 316 12.7 100470 63
2005-03-22 08:39:23 51°13.131 2°50.616 12 316 12.7 100470 63
2005-03-22 08:39:27 51°13.123 2°50.594 11.3 316 12.7 100470 63
2005-03-22 08:39:33 51°13.113 2°50.568 11.8 41 12.7 100460 63
2005-03-22 08:39:38 51°13.104 2°50.543 11.5 316 12.7 100460 63
2005-03-22 08:39:43 51°13.095 2°50.519 10.3 319 12.7 100460 63
2005-03-22 08:39:47 51°13.088 2°50.497 11.4 318 12.7 100460 63
2005-03-22 08:39:52 51°13.079 2°50.476 11.9 318 12.6 100460 63
2005-03-22 08:39:57 51°13.071 2°50.451 13.1 317 12.6 100460 63
2005-03-22 08:40:02 51°13.061 2°50.425 11.7 320 12.7 100460 63
2005-03-22 08:40:07 51°13.052 2°50.4 11.5 316 12.7 100460 63
2005-03-22 08:40:12 51°13.044 2°50.378 11.2 320 12.6 100470 63
2005-03-22 08:40:17 51°13.035 2°50.354 11.1 317 12.6 100470 63
2005-03-22 08:40:23 51°13.024 2°50.326 11.8 316 12.6 100460 63
2005-03-22 08:40:28 51°13.015 2°50.301 13 318 12.6 100460 63
2005-03-22 08:40:31 51°13.009 2°50.285 11 227 12.6 100460 63
2005-03-22 08:40:36 51°13 2°50.26 12 316 12.6 100460 63
2005-03-22 08:40:43 51°12.988 2°50.229 12.3 316 12.6 100460 63
2005-03-22 08:40:47 51°12.98 2°50.207 11.5 318 12.6 100460 63
2005-03-22 08:40:51 51°12.974 2°50.191 11.1 318 12.6 100460 63
2005-03-22 08:40:57 51°12.963 2°50.162 12.3 42 12.6 100460 63
2005-03-22 08:41:02 51°12.953 2°50.135 12.5 317 12.6 100450 63
2005-03-22 08:41:07 51°12.944 2°50.111 11.1 316 12.6 100450 63
2005-03-22 08:41:13 51°12.935 2°50.084 12.2 315 12.6 100460 63
2005-03-22 08:41:17 51°12.926 2°50.062 11.7 317 12.6 100460 63
2005-03-22 08:41:23 51°12.916 2°50.036 11.9 43 12.6 100460 63
2005-03-22 08:41:27 51°12.908 2°50.014 11.1 318 12.6 100460 63
2005-03-22 08:41:33 51°12.898 2°49.988 11.5 317 12.6 100460 63
2005-03-22 08:41:37 51°12.891 2°49.969 11.9 319 12.6 100460 63
2005-03-22 08:41:43 51°12.88 2°49.94 11.3 42 12.6 100470 64
2005-03-22 08:41:47 51°12.872 2°49.918 11.8 43 12.6 100470 64
2005-03-22 08:41:52 51°12.864 2°49.896 12 43 12.6 100470 64
2005-03-22 08:41:58 51°12.853 2°49.867 11.8 41 12.6 100470 64
2005-03-22 08:42:02 51°12.845 2°49.845 11.6 43 12.6 100450 64
2005-03-22 08:42:07 51°12.836 2°49.821 12.5 318 12.6 100450 64
2005-03-22 08:42:13 51°12.826 2°49.795 13.3 316 12.6 100460 63
2005-03-22 08:42:17 51°12.819 2°49.776 12.5 320 12.6 100460 63
2005-03-22 08:42:23 51°12.808 2°49.747 11.2 39 12.6 100460 63
2005-03-22 08:42:27 51°12.8 2°49.725 12.3 317 12.6 100460 63
2005-03-22 08:42:33 51°12.791 2°49.699 13.2 317 12.6 100450 63
2005-03-22 08:42:37 51°12.784 2°49.679 13 42 12.6 100450 63
2005-03-22 08:42:42 51°12.774 2°49.653 12.5 315 12.6 100460 64
2005-03-22 08:42:47 51°12.765 2°49.629 13.1 318 12.6 100460 64
2005-03-22 08:42:52 51°12.756 2°49.605 12 41 12.6 100460 63
2005-03-22 08:42:57 51°12.747 2°49.581 12.3 316 12.6 100460 63
2005-03-22 08:43:02 51°12.74 2°49.56 11.7 317 12.6 100460 63
2005-03-22 08:43:08 51°12.729 2°49.531 12.9 318 12.6 100460 63
2005-03-22 08:43:11 51°12.723 2°49.514 12.6 315 12.6 100450 63
2005-03-22 08:43:18 51°12.711 2°49.483 12.8 315 12.6 100450 63
2005-03-22 08:43:22 51°12.703 2°49.462 13.2 314 12.7 100460 63
2005-03-22 08:43:27 51°12.694 2°49.438 12.7 43 12.7 100460 63
2005-03-22 08:43:33 51°12.684 2°49.412 13 41 12.7 100460 63
2005-03-22 08:43:37 51°12.676 2°49.39 11.9 315 12.7 100460 63
2005-03-22 08:43:43 51°12.666 2°49.364 12 227 12.7 100450 63
2005-03-22 08:43:47 51°12.658 2°49.343 13.4 314 12.7 100450 63
2005-03-22 08:43:53 51°12.649 2°49.316 12.9 316 12.7 100450 63
2005-03-22 08:43:58 51°12.64 2°49.292 11.9 42 12.7 100450 63
2005-03-22 08:44:03 51°12.631 2°49.268 12.7 39 12.7 100450 63
2005-03-22 08:44:07 51°12.624 2°49.249 13.3 231 12.7 100450 63
2005-03-22 08:44:11 51°12.617 2°49.23 12.9 315 12.7 100450 63
2005-03-22 08:44:17 51°12.606 2°49.201 11.3 314 12.7 100450 63
2005-03-22 08:44:23 51°12.596 2°49.172 12.4 315 12.7 100460 64
2005-03-22 08:44:27 51°12.589 2°49.153 13 41 12.7 100460 64
2005-03-22 08:44:31 51°12.582 2°49.133 12.2 317 12.7 100450 63
2005-03-22 08:44:37 51°12.571 2°49.105 11.8 43 12.7 100450 63
2005-03-22 08:44:43 51°12.561 2°49.075 13.2 316 12.7 100450 63
2005-03-22 08:44:47 51°12.553 2°49.054 12.5 318 12.7 100450 63
2005-03-22 08:44:52 51°12.544 2°49.03 13.3 317 12.7 100460 64
2005-03-22 08:44:57 51°12.536 2°49.008 13.1 318 12.7 100460 64
2005-03-22 08:45:02 51°12.526 2°48.982 13.3 321 12.6 100460 64
2005-03-22 08:45:07 51°12.517 2°48.958 12.6 321 12.6 100460 64
2005-03-22 08:45:13 51°12.507 2°48.932 12.4 320 12.6 100460 63
2005-03-22 08:45:18 51°12.498 2°48.908 13.5 314 12.6 100460 63
2005-03-22 08:45:22 51°12.491 2°48.889 13 313 12.6 100440 63
2005-03-22 08:45:27 51°12.482 2°48.866 12.4 44 12.6 100440 63
2005-03-22 08:45:33 51°12.471 2°48.837 11.5 228 12.6 100460 63
2005-03-22 08:45:37 51°12.463 2°48.815 12.4 319 12.6 100460 63
2005-03-22 08:45:43 51°12.453 2°48.789 12.4 42 12.6 100460 63
2005-03-22 08:45:48 51°12.445 2°48.764 11.9 315 12.6 100460 63
2005-03-22 08:45:53 51°12.436 2°48.741 11.8 320 12.6 100460 63
2005-03-22 08:45:57 51°12.428 2°48.719 12.1 317 12.6 100460 63
2005-03-22 08:46:02 51°12.419 2°48.695 12 42 12.7 100460 63
2005-03-22 08:46:07 51°12.41 2°48.671 11.3 319 12.7 100460 63
2005-03-22 08:46:13 51°12.4 2°48.645 12 316 12.7 100450 63
2005-03-22 08:46:17 51°12.393 2°48.626 11.9 227 12.7 100450 63
2005-03-22 08:46:22 51°12.383 2°48.6 12.3 317 12.7 100460 63
2005-03-22 08:46:27 51°12.374 2°48.576 12.5 319 12.7 100460 63
2005-03-22 08:46:32 51°12.366 2°48.554 12.4 318 12.7 100450 63
2005-03-22 08:46:38 51°12.356 2°48.525 13.7 317 12.7 100450 63
2005-03-22 08:46:43 51°12.347 2°48.501 14.2 317 12.7 100450 63
2005-03-22 08:46:47 51°12.339 2°48.479 13 322 12.7 100450 63
2005-03-22 08:46:53 51°12.33 2°48.453 12.1 317 12.7 100450 63
2005-03-22 08:46:57 51°12.323 2°48.434 12.4 318 12.7 100450 63
2005-03-22 08:47:03 51°12.312 2°48.405 12.1 319 12.7 100450 63
2005-03-22 08:47:07 51°12.304 2°48.383 13.4 318 12.7 100450 63
2005-03-22 08:47:13 51°12.295 2°48.357 13.4 315 12.7 100440 63
2005-03-22 08:47:17 51°12.288 2°48.338 13.7 317 12.7 100440 63
2005-03-22 08:47:23 51°12.277 2°48.309 13.1 321 12.7 100440 63
2005-03-22 08:47:27 51°12.269 2°48.287 12.2 320 12.7 100440 63
2005-03-22 08:47:31 51°12.262 2°48.268 11.3 318 12.7 100450 63
2005-03-22 08:47:36 51°12.254 2°48.246 13 317 12.7 100450 63
2005-03-22 08:47:42 51°12.243 2°48.215 13.1 319 12.7 100440 63
2005-03-22 08:47:48 51°12.233 2°48.189 12.7 320 12.7 100440 63
2005-03-22 08:47:53 51°12.224 2°48.165 11.9 43 12.7 100450 63
2005-03-22 08:47:57 51°12.216 2°48.143 11.8 313 12.7 100450 63
2005-03-22 08:48:02 51°12.207 2°48.12 12 319 12.7 100450 63
2005-03-22 08:48:07 51°12.199 2°48.096 13 42 12.7 100450 63
2005-03-22 08:48:13 51°12.189 2°48.07 12.5 316 12.7 100450 63
2005-03-22 08:48:17 51°12.182 2°48.051 12.5 319 12.7 100450 63
2005-03-22 08:48:22 51°12.172 2°48.025 12.3 321 12.7 100450 63
2005-03-22 08:48:27 51°12.163 2°48.002 12 320 12.7 100450 63
2005-03-22 08:48:33 51°12.153 2°47.975 13.6 41 12.8 100450 63
2005-03-22 08:48:37 51°12.145 2°47.953 14.4 317 12.8 100450 63
2005-03-22 08:48:43 51°12.135 2°47.928 12.5 317 12.7 100450 63
2005-03-22 08:48:47 51°12.128 2°47.909 12.6 318 12.7 100450 63
2005-03-22 08:48:51 51°12.12 2°47.887 12 318 12.7 100450 63
2005-03-22 08:48:57 51°12.11 2°47.861 12.1 320 12.7 100450 63
2005-03-22 08:49:02 51°12.101 2°47.835 11.1 318 12.7 100450 63
2005-03-22 08:49:07 51°12.092 2°47.811 11 318 12.7 100450 63
2005-03-22 08:49:12 51°12.084 2°47.79 11.6 322 12.8 100450 63
2005-03-22 08:49:17 51°12.075 2°47.766 12 321 12.8 100450 63
2005-03-22 08:49:23 51°12.064 2°47.738 13.3 317 12.8 100460 63
2005-03-22 08:49:27 51°12.056 2°47.716 13.1 323 12.8 100460 63
2005-03-22 08:49:31 51°12.049 2°47.697 14.2 318 12.7 100450 63
2005-03-22 08:49:37 51°12.039 2°47.671 12.6 315 12.7 100450 63
2005-03-22 08:49:43 51°12.028 2°47.643 13.5 318 12.7 100450 63
2005-03-22 08:49:47 51°12.02 2°47.621 12.4 315 12.7 100450 63
2005-03-22 08:49:51 51°12.013 2°47.602 11.6 323 12.8 100450 63
2005-03-22 08:49:57 51°12.003 2°47.576 13.5 321 12.8 100450 63
2005-03-22 08:50:02 51°11.994 2°47.55 12.6 317 12.7 100450 63
2005-03-22 08:50:07 51°11.985 2°47.526 12.1 322 12.7 100450 63
2005-03-22 08:50:13 51°11.975 2°47.5 12.5 321 12.8 100460 63
2005-03-22 08:50:17 51°11.967 2°47.478 13.5 320 12.8 100460 63
2005-03-22 08:50:23 51°11.957 2°47.453 12.5 323 12.7 100460 63
2005-03-22 08:50:27 51°11.949 2°47.432 12.4 320 12.7 100460 63
2005-03-22 08:50:32 51°11.941 2°47.41 12.6 320 12.8 100450 63
2005-03-22 08:50:38 51°11.931 2°47.382 11.6 320 12.8 100450 63
2005-03-22 08:50:42 51°11.923 2°47.36 12.3 325 12.8 100450 63
2005-03-22 08:50:47 51°11.918 2°47.338 12.5 317 12.8 100450 63
2005-03-22 08:50:51 51°11.912 2°47.315 9.9 319 12.7 100460 63
2005-03-22 08:50:57 51°11.905 2°47.283 11.2 315 12.7 100460 63
2005-03-22 08:51:01 51°11.901 2°47.266 10.5 40 12.8 100460 63
2005-03-22 08:51:07 51°11.895 2°47.231 9.9 43 12.8 100460 63
2005-03-22 08:51:13 51°11.889 2°47.202 10.7 43 12.7 100460 64
2005-03-22 08:51:17 51°11.886 2°47.181 11 314 12.7 100460 64
2005-03-22 08:51:22 51°11.879 2°47.153 11.4 41 12.7 100470 63
2005-03-22 08:51:27 51°11.873 2°47.127 12.3 41 12.7 100470 63
2005-03-22 08:51:32 51°11.867 2°47.104 10.7 318 12.7 100470 63
2005-03-22 08:51:37 51°11.861 2°47.078 12.3 42 12.7 100470 63
2005-03-22 08:51:43 51°11.853 2°47.048 12.3 315 12.7 100480 64
2005-03-22 08:51:47 51°11.847 2°47.025 12.5 315 12.7 100480 64
2005-03-22 08:51:52 51°11.841 2°47.002 11.3 313 12.7 100470 64
2005-03-22 08:51:57 51°11.834 2°46.973 11.8 43 12.7 100470 64
2005-03-22 08:52:03 51°11.826 2°46.946 11.5 317 12.7 100470 64
2005-03-22 08:52:07 51°11.82 2°46.923 10.9 316 12.7 100470 64
2005-03-22 08:52:13 51°11.813 2°46.895 10.4 318 12.7 100460 64
2005-03-22 08:52:18 51°11.806 2°46.87 12.9 227 12.7 100460 64
2005-03-22 08:52:23 51°11.799 2°46.844 13.5 313 12.7 100470 63
2005-03-22 08:52:27 51°11.793 2°46.824 12.6 42 12.7 100470 63
2005-03-22 08:52:33 51°11.786 2°46.794 12.7 227 12.7 100470 64
2005-03-22 08:52:38 51°11.779 2°46.768 12.7 227 12.7 100470 64
2005-03-22 08:52:42 51°11.773 2°46.748 11.1 317 12.7 100470 64
2005-03-22 08:52:47 51°11.766 2°46.722 11.1 316 12.7 100470 64
2005-03-22 08:52:53 51°11.758 2°46.692 11.6 39 12.7 100460 64
2005-03-22 08:52:57 51°11.751 2°46.669 11.2 317 12.7 100460 64
2005-03-22 08:53:03 51°11.744 2°46.642 11.9 228 12.7 100470 64
2005-03-22 08:53:07 51°11.738 2°46.619 12.4 227 12.7 100470 64
2005-03-22 08:53:13 51°11.73 2°46.591 11.3 227 12.7 100460 64
2005-03-22 08:53:17 51°11.724 2°46.568 11.2 315 12.7 100460 64
2005-03-22 08:53:22 51°11.718 2°46.543 12.1 315 12.6 100470 64
2005-03-22 08:53:27 51°11.711 2°46.517 11.3 317 12.6 100470 64
2005-03-22 08:53:32 51°11.705 2°46.494 11.2 42 12.6 100460 64
2005-03-22 08:53:37 51°11.698 2°46.469 10.7 43 12.6 100460 64
2005-03-22 08:53:43 51°11.69 2°46.439 10.9 319 12.6 100470 64
2005-03-22 08:53:47 51°11.684 2°46.416 10.1 319 12.6 100470 64
2005-03-22 08:53:52 51°11.677 2°46.393 10.4 316 12.6 100460 64
2005-03-22 08:53:57 51°11.67 2°46.364 10.1 41 12.6 100460 64
2005-03-22 08:54:03 51°11.663 2°46.337 10.2 43 12.6 100460 64
2005-03-22 08:54:07 51°11.657 2°46.314 10.6 42 12.6 100460 64
2005-03-22 08:54:13 51°11.649 2°46.286 10.3 316 12.6 100460 64
2005-03-22 08:54:17 51°11.643 2°46.262 12.4 41 12.6 100460 64
2005-03-22 08:54:20 51°11.639 2°46.248 12.9 316 12.6 100470 64
2005-03-22 08:54:28 51°11.629 2°46.209 12.5 43 12.6 100470 64
2005-03-22 08:54:32 51°11.624 2°46.189 12.4 314 12.6 100470 64
2005-03-22 08:54:38 51°11.615 2°46.159 12.2 315 12.6 100470 64
2005-03-22 08:54:43 51°11.608 2°46.134 10.3 43 12.6 100460 64
2005-03-22 08:54:48 51°11.601 2°46.108 10.9 318 12.6 100460 64
2005-03-22 08:54:53 51°11.594 2°46.084 11.6 316 12.6 100460 64
2005-03-22 08:54:57 51°11.589 2°46.063 11.2 313 12.6 100460 64
2005-03-22 08:55:03 51°11.58 2°46.033 10.7 315 12.6 100460 64
2005-03-22 08:55:07 51°11.575 2°46.01 10.6 313 12.6 100460 64
2005-03-22 08:55:13 51°11.568 2°45.981 11 228 12.6 100460 64
2005-03-22 08:55:17 51°11.562 2°45.958 10.8 319 12.6 100460 64
2005-03-22 08:55:23 51°11.556 2°45.93 11.7 43 12.7 100460 64
2005-03-22 08:55:27 51°11.55 2°45.906 11.1 312 12.7 100460 64
2005-03-22 08:55:31 51°11.545 2°45.886 10.4 230 12.7 100470 64
2005-03-22 08:55:38 51°11.538 2°45.852 11.2 229 12.7 100470 64
2005-03-22 08:55:43 51°11.532 2°45.826 11.9 311 12.7 100460 64
2005-03-22 08:55:47 51°11.527 2°45.805 12 314 12.7 100460 64
2005-03-22 08:55:52 51°11.521 2°45.779 10.3 310 12.7 100460 64
2005-03-22 08:55:58 51°11.514 2°45.747 10.6 313 12.7 100460 64
2005-03-22 08:56:02 51°11.51 2°45.726 11 314 12.7 100460 64
2005-03-22 08:56:07 51°11.504 2°45.7 9.7 43 12.7 100460 64
2005-03-22 08:56:13 51°11.497 2°45.669 10.7 43 12.7 100460 64
2005-03-22 08:56:17 51°11.491 2°45.645 10.8 43 12.7 100460 64
2005-03-22 08:56:23 51°11.485 2°45.617 11.8 316 12.7 100460 63
2005-03-22 08:56:28 51°11.479 2°45.591 12.1 313 12.7 100460 63
2005-03-22 08:56:31 51°11.475 2°45.573 12.6 312 12.7 100460 63
2005-03-22 08:56:37 51°11.467 2°45.542 12.2 313 12.7 100460 63
2005-03-22 08:56:43 51°11.46 2°45.511 13 311 12.7 100460 63
2005-03-22 08:56:47 51°11.455 2°45.49 13.1 311 12.7 100460 63
2005-03-22 08:56:52 51°11.449 2°45.465 13.2 314 12.7 100460 64
2005-03-22 08:56:57 51°11.443 2°45.438 12.6 313 12.7 100460 64
2005-03-22 08:57:02 51°11.438 2°45.416 12.1 312 12.7 100450 63
2005-03-22 08:57:07 51°11.431 2°45.387 12 227 12.7 100450 63
2005-03-22 08:57:11 51°11.426 2°45.367 12.2 314 12.7 100450 63
2005-03-22 08:57:17 51°11.42 2°45.339 12 314 12.7 100450 63
2005-03-22 08:57:22 51°11.413 2°45.31 11.3 314 12.7 100450 63
2005-03-22 08:57:27 51°11.407 2°45.284 10.6 311 12.7 100450 63
2005-03-22 08:57:33 51°11.4 2°45.256 12.1 310 12.7 100450 63
2005-03-22 08:57:38 51°11.394 2°45.23 12.8 310 12.7 100450 63
2005-03-22 08:57:41 51°11.391 2°45.215 11.3 312 12.7 100460 63
2005-03-22 08:57:47 51°11.383 2°45.181 12.1 313 12.7 100460 63
2005-03-22 08:57:52 51°11.377 2°45.155 12.5 312 12.7 100460 63
2005-03-22 08:57:57 51°11.371 2°45.129 12.7 309 12.7 100460 63
2005-03-22 08:58:03 51°11.364 2°45.101 11.7 311 12.7 100450 63
2005-03-22 08:58:07 51°11.359 2°45.078 11.2 314 12.7 100450 63
2005-03-22 08:58:12 51°11.353 2°45.053 11.5 313 12.7 100460 63
2005-03-22 08:58:17 51°11.347 2°45.026 10.6 229 12.7 100460 63
2005-03-22 08:58:20 51°11.343 2°45.011 10.2 314 12.7 100450 63
2005-03-22 08:58:27 51°11.335 2°44.978 10.6 226 12.7 100450 63
2005-03-22 08:58:32 51°11.329 2°44.952 9.9 228 12.7 100450 63
2005-03-22 08:58:37 51°11.322 2°44.923 10.2 312 12.7 100450 63
2005-03-22 08:58:43 51°11.316 2°44.895 10.3 313 12.7 100450 63
2005-03-22 08:58:47 51°11.31 2°44.872 11 312 12.7 100450 63
2005-03-22 08:58:53 51°11.303 2°44.844 10.8 314 12.6 100460 63
2005-03-22 08:58:57 51°11.298 2°44.823 11.3 314 12.6 100460 63
2005-03-22 08:59:02 51°11.292 2°44.797 10.3 313 12.6 100450 64
2005-03-22 08:59:07 51°11.286 2°44.769 11.4 308 12.6 100450 64
2005-03-22 08:59:13 51°11.279 2°44.741 12.5 312 12.6 100450 64
2005-03-22 08:59:17 51°11.274 2°44.72 11.6 308 12.6 100450 64
2005-03-22 08:59:23 51°11.267 2°44.689 11.6 307 12.6 100450 64
2005-03-22 08:59:27 51°11.261 2°44.666 11.3 312 12.6 100450 64
2005-03-22 08:59:32 51°11.256 2°44.642 12 315 12.6 100440 64
2005-03-22 08:59:36 51°11.251 2°44.622 11.7 312 12.6 100440 64
2005-03-22 08:59:43 51°11.243 2°44.586 11.4 310 12.5 100440 64
2005-03-22 08:59:47 51°11.237 2°44.562 10.8 311 12.5 100440 64
2005-03-22 08:59:52 51°11.231 2°44.537 11.8 314 12.5 100440 64
2005-03-22 08:59:57 51°11.226 2°44.514 11.1 313 12.5 100440 64
2005-03-22 09:00:02 51°11.219 2°44.485 11.6 312 12.6 100450 64
2005-03-22 09:00:07 51°11.213 2°44.46 11.5 314 12.6 100450 64
2005-03-22 09:00:12 51°11.207 2°44.434 10 311 12.6 100450 64
2005-03-22 09:00:17 51°11.202 2°44.411 11.9 312 12.6 100450 64
2005-03-22 09:00:23 51°11.195 2°44.38 10.8 311 12.5 100450 64
2005-03-22 09:00:27 51°11.189 2°44.357 11.2 228 12.5 100450 64
2005-03-22 09:00:32 51°11.183 2°44.331 11.5 314 12.5 100450 64
2005-03-22 09:00:37 51°11.178 2°44.308 11.6 43 12.5 100450 64
2005-03-22 09:00:43 51°11.17 2°44.277 11.3 314 12.5 100450 64
2005-03-22 09:00:48 51°11.164 2°44.25 11.2 313 12.5 100450 64
2005-03-22 09:00:51 51°11.16 2°44.233 10.8 310 12.5 100450 65
2005-03-22 09:00:57 51°11.154 2°44.204 11.4 308 12.5 100450 65
2005-03-22 09:01:02 51°11.147 2°44.176 10.4 311 12.5 100450 65
2005-03-22 09:01:07 51°11.142 2°44.153 10.9 313 12.5 100450 65
2005-03-22 09:01:13 51°11.134 2°44.122 10.9 313 12.5 100450 64
2005-03-22 09:01:17 51°11.13 2°44.101 9.8 313 12.5 100450 64
2005-03-22 09:01:23 51°11.122 2°44.07 10.4 311 12.5 100450 64
2005-03-22 09:01:27 51°11.118 2°44.049 10.6 309 12.5 100450 64
2005-03-22 09:01:33 51°11.11 2°44.019 10 308 12.5 100440 64
2005-03-22 09:01:37 51°11.106 2°43.998 10.4 312 12.5 100440 64
2005-03-22 09:01:42 51°11.099 2°43.972 11.7 309 12.5 100450 64
2005-03-22 09:01:47 51°11.093 2°43.944 10.1 312 12.5 100450 64
2005-03-22 09:01:51 51°11.089 2°43.923 11.5 304 12.5 100450 64
2005-03-22 09:01:57 51°11.083 2°43.891 11.1 309 12.5 100450 64
2005-03-22 09:02:03 51°11.078 2°43.862 10.7 309 12.5 100440 64
2005-03-22 09:02:07 51°11.074 2°43.838 11.1 306 12.5 100440 64
2005-03-22 09:02:13 51°11.069 2°43.809 11.2 311 12.5 100450 65
2005-03-22 09:02:17 51°11.064 2°43.784 10.9 309 12.5 100450 65
2005-03-22 09:02:22 51°11.061 2°43.758 10.6 309 12.5 100450 65
2005-03-22 09:02:27 51°11.056 2°43.731 11.3 308 12.5 100450 65
2005-03-22 09:02:32 51°11.052 2°43.705 10.4 306 12.5 100440 64
2005-03-22 09:02:37 51°11.047 2°43.681 10.4 308 12.5 100440 64
2005-03-22 09:02:43 51°11.042 2°43.649 12.1 306 12.5 100450 65
2005-03-22 09:02:47 51°11.038 2°43.625 11.6 307 12.5 100450 65
2005-03-22 09:02:51 51°11.034 2°43.604 11.8 305 12.5 100450 64
2005-03-22 09:02:57 51°11.029 2°43.575 10 311 12.5 100450 64
2005-03-22 09:03:02 51°11.024 2°43.546 10.4 306 12.5 100450 65
2005-03-22 09:03:07 51°11.021 2°43.521 10.6 306 12.5 100450 65
2005-03-22 09:03:13 51°11.015 2°43.49 10.8 304 12.5 100450 65
2005-03-22 09:03:17 51°11.011 2°43.468 9.5 308 12.5 100450 65
2005-03-22 09:03:23 51°11.006 2°43.437 10.1 306 12.5 100450 65
2005-03-22 09:03:27 51°11.003 2°43.415 9.9 305 12.5 100450 65
2005-03-22 09:03:33 51°10.998 2°43.383 10.1 307 12.5 100450 65
2005-03-22 09:03:37 51°10.995 2°43.362 10.3 309 12.5 100450 65
2005-03-22 09:03:42 51°10.992 2°43.335 9.5 304 12.4 100450 65
2005-03-22 09:03:47 51°10.988 2°43.305 9.8 305 12.4 100450 65
2005-03-22 09:03:51 51°10.985 2°43.284 9.3 302 12.4 100450 65
2005-03-22 09:03:57 51°10.981 2°43.251 9.3 305 12.4 100450 65
2005-03-22 09:04:03 51°10.977 2°43.222 9.7 307 12.4 100450 65
2005-03-22 09:04:07 51°10.974 2°43.198 10.7 307 12.4 100450 65
2005-03-22 09:04:13 51°10.971 2°43.168 10.7 308 12.4 100450 65
2005-03-22 09:04:17 51°10.967 2°43.144 10.8 306 12.4 100450 65
2005-03-22 09:04:21 51°10.964 2°43.122 10.8 308 12.4 100450 65
2005-03-22 09:04:27 51°10.961 2°43.093 11.2 305 12.4 100450 65
2005-03-22 09:04:32 51°10.957 2°43.063 11.1 302 12.4 100450 65
2005-03-22 09:04:37 51°10.953 2°43.036 11.2 301 12.4 100450 65
2005-03-22 09:04:43 51°10.949 2°43.007 11.2 302 12.4 100450 65
2005-03-22 09:04:47 51°10.946 2°42.983 10.4 304 12.4 100450 65
2005-03-22 09:04:52 51°10.943 2°42.958 10.8 302 12.4 100440 65
2005-03-22 09:04:57 51°10.939 2°42.928 10.2 304 12.4 100440 65
2005-03-22 09:05:02 51°10.935 2°42.902 10.1 304 12.4 100450 65
2005-03-22 09:05:07 51°10.932 2°42.875 10.1 305 12.4 100450 65
2005-03-22 09:05:13 51°10.928 2°42.845 10.4 304 12.3 100450 65
2005-03-22 09:05:17 51°10.925 2°42.824 10.1 306 12.3 100450 65
2005-03-22 09:05:23 51°10.921 2°42.791 10 310 12.3 100440 65
2005-03-22 09:05:27 51°10.918 2°42.77 11.4 306 12.3 100440 65
2005-03-22 09:05:32 51°10.913 2°42.741 10.2 311 12.4 100450 65
2005-03-22 09:05:37 51°10.908 2°42.714 11 308 12.4 100450 65
2005-03-22 09:05:42 51°10.903 2°42.689 12 309 12.3 100450 65
2005-03-22 09:05:47 51°10.898 2°42.662 11.1 308 12.3 100450 65
2005-03-22 09:05:52 51°10.892 2°42.636 11.3 312 12.3 100450 65
2005-03-22 09:05:57 51°10.887 2°42.613 10.7 312 12.3 100450 65
2005-03-22 09:06:03 51°10.881 2°42.582 11.3 312 12.3 100440 65
2005-03-22 09:06:07 51°10.876 2°42.561 11.4 313 12.3 100440 65
2005-03-22 09:06:12 51°10.87 2°42.533 11.4 312 12.3 100440 65
2005-03-22 09:06:17 51°10.865 2°42.51 10.4 309 12.3 100440 65
2005-03-22 09:06:23 51°10.858 2°42.479 10.5 308 12.3 100440 65
2005-03-22 09:06:27 51°10.853 2°42.455 11.1 307 12.3 100440 65
2005-03-22 09:06:32 51°10.848 2°42.429 10.6 234 12.3 100440 65
2005-03-22 09:06:37 51°10.842 2°42.406 11.4 309 12.3 100440 65
2005-03-22 09:06:42 51°10.836 2°42.378 11.2 308 12.3 100440 66
2005-03-22 09:06:47 51°10.832 2°42.354 10.6 232 12.3 100440 66
2005-03-22 09:06:52 51°10.825 2°42.326 11 312 12.3 100440 66
2005-03-22 09:06:57 51°10.82 2°42.303 12 306 12.3 100440 66
2005-03-22 09:07:03 51°10.813 2°42.272 10.8 307 12.3 100440 66
2005-03-22 09:07:07 51°10.807 2°42.249 11.8 307 12.3 100440 66
2005-03-22 09:07:12 51°10.801 2°42.224 11.8 309 12.2 100440 66
2005-03-22 09:07:17 51°10.795 2°42.201 11.9 306 12.2 100440 66
2005-03-22 09:07:22 51°10.789 2°42.173 12.2 307 12.2 100440 66
2005-03-22 09:07:27 51°10.783 2°42.147 12.3 302 12.2 100440 66
2005-03-22 09:07:32 51°10.777 2°42.124 10.7 312 12.2 100440 66
2005-03-22 09:07:37 51°10.771 2°42.099 10.7 311 12.2 100440 66
2005-03-22 09:07:42 51°10.765 2°42.07 10.4 309 12.2 100430 66
2005-03-22 09:07:47 51°10.759 2°42.045 11.5 308 12.2 100430 66
2005-03-22 09:07:53 51°10.752 2°42.016 11.9 309 12.3 100430 66
2005-03-22 09:07:57 51°10.747 2°41.996 11.7 309 12.3 100430 66
2005-03-22 09:08:02 51°10.741 2°41.97 10.3 311 12.3 100440 66
2005-03-22 09:08:07 51°10.734 2°41.945 11.5 314 12.3 100440 66
2005-03-22 09:08:11 51°10.728 2°41.923 11.3 228 12.3 100430 66
2005-03-22 09:08:17 51°10.719 2°41.896 10.9 231 12.3 100430 66
2005-03-22 09:08:22 51°10.711 2°41.869 11 227 12.3 100440 66
2005-03-22 09:08:27 51°10.703 2°41.845 10.2 229 12.3 100440 66
2005-03-22 09:08:33 51°10.695 2°41.819 13.2 312 12.3 100440 66
2005-03-22 09:08:37 51°10.687 2°41.797 11.9 314 12.3 100440 66
2005-03-22 09:08:42 51°10.679 2°41.774 12.4 310 12.3 100440 66
2005-03-22 09:08:47 51°10.671 2°41.75 11.5 313 12.3 100440 66
2005-03-22 09:08:52 51°10.662 2°41.727 13.5 314 12.2 100430 66
2005-03-22 09:08:57 51°10.654 2°41.703 11.8 230 12.2 100430 66
2005-03-22 09:09:02 51°10.646 2°41.68 11.9 315 12.2 100430 66
2005-03-22 09:09:07 51°10.637 2°41.656 12.4 312 12.2 100430 66
2005-03-22 09:09:12 51°10.63 2°41.635 11.7 312 12.2 100440 66
2005-03-22 09:09:17 51°10.621 2°41.608 12.6 233 12.2 100440 66
2005-03-22 09:09:22 51°10.613 2°41.585 11.6 228 12.2 100430 66
2005-03-22 09:09:27 51°10.605 2°41.561 12.7 228 12.2 100430 66
2005-03-22 09:09:33 51°10.596 2°41.535 11.4 312 12.2 100430 66
2005-03-22 09:09:37 51°10.589 2°41.516 12.7 312 12.2 100430 66
2005-03-22 09:09:42 51°10.58 2°41.49 12.8 313 12.2 100430 66
2005-03-22 09:09:48 51°10.571 2°41.463 12.8 312 12.2 100430 66
2005-03-22 09:09:52 51°10.565 2°41.444 10.8 309 12.2 100440 66
2005-03-22 09:09:56 51°10.559 2°41.425 13.4 313 12.2 100440 66
2005-03-22 09:10:03 51°10.549 2°41.391 12.5 314 12.2 100430 66
2005-03-22 09:10:07 51°10.543 2°41.368 12.2 309 12.2 100430 66
2005-03-22 09:10:12 51°10.537 2°41.346 12.5 308 12.2 100430 66
2005-03-22 09:10:18 51°10.529 2°41.316 11.3 312 12.2 100430 66
2005-03-22 09:10:22 51°10.523 2°41.293 11.5 311 12.2 100440 66
2005-03-22 09:10:27 51°10.517 2°41.268 12.2 309 12.2 100440 66
2005-03-22 09:10:32 51°10.511 2°41.245 10.5 314 12.2 100430 66
2005-03-22 09:10:36 51°10.507 2°41.225 11.4 309 12.2 100430 66
2005-03-22 09:10:41 51°10.5 2°41.197 10.4 309 12.2 100430 66
2005-03-22 09:10:47 51°10.493 2°41.167 10.9 310 12.2 100430 66
2005-03-22 09:10:52 51°10.487 2°41.144 10 307 12.2 100430 66
2005-03-22 09:10:57 51°10.481 2°41.116 12 305 12.2 100430 66
2005-03-22 09:11:03 51°10.474 2°41.089 11.8 304 12.2 100440 66
2005-03-22 09:11:07 51°10.469 2°41.066 11.9 306 12.2 100440 66
2005-03-22 09:11:13 51°10.463 2°41.038 11.1 305 12.2 100430 66
2005-03-22 09:11:17 51°10.458 2°41.017 11.1 306 12.2 100430 66
2005-03-22 09:11:23 51°10.452 2°40.987 10.7 307 12.2 100440 66
2005-03-22 09:11:27 51°10.446 2°40.964 10.9 307 12.2 100440 66
2005-03-22 09:11:33 51°10.44 2°40.936 11 307 12.2 100440 66
2005-03-22 09:11:38 51°10.434 2°40.911 11.7 310 12.2 100440 66
2005-03-22 09:11:42 51°10.429 2°40.888 10.4 308 12.2 100440 66
2005-03-22 09:11:47 51°10.424 2°40.865 10.8 309 12.2 100440 66
2005-03-22 09:11:53 51°10.416 2°40.835 11.4 311 12.1 100440 66
2005-03-22 09:11:57 51°10.412 2°40.814 11.6 308 12.1 100440 66
2005-03-22 09:12:02 51°10.406 2°40.787 10.5 313 12.2 100440 66
2005-03-22 09:12:07 51°10.401 2°40.763 10.3 306 12.2 100440 66
2005-03-22 09:12:12 51°10.394 2°40.738 12.3 308 12.2 100430 66
2005-03-22 09:12:17 51°10.389 2°40.713 11 306 12.2 100430 66
2005-03-22 09:12:22 51°10.382 2°40.685 10.5 310 12.2 100430 66
2005-03-22 09:12:27 51°10.376 2°40.66 10.4 314 12.2 100430 66
2005-03-22 09:12:32 51°10.37 2°40.634 10 310 12.1 100440 66
2005-03-22 09:12:37 51°10.365 2°40.611 9.7 308 12.1 100440 66
2005-03-22 09:12:42 51°10.359 2°40.584 10.5 312 12.1 100440 66
2005-03-22 09:12:47 51°10.353 2°40.558 10.2 310 12.1 100440 66
2005-03-22 09:12:52 51°10.347 2°40.533 9.9 303 12.1 100440 66
2005-03-22 09:12:57 51°10.341 2°40.507 9.3 306 12.1 100440 66
2005-03-22 09:13:02 51°10.335 2°40.483 10.7 306 12.1 100440 67
2005-03-22 09:13:07 51°10.329 2°40.457 10.3 304 12.1 100440 67
2005-03-22 09:13:12 51°10.323 2°40.432 10.6 306 12.1 100430 67
2005-03-22 09:13:17 51°10.317 2°40.406 10 307 12.1 100430 67
2005-03-22 09:13:20 51°10.314 2°40.391 10.4 311 12.1 100440 66
2005-03-22 09:13:27 51°10.306 2°40.358 10.3 308 12.1 100440 66
2005-03-22 09:13:32 51°10.3 2°40.332 9.9 309 12.1 100440 66
2005-03-22 09:13:37 51°10.294 2°40.304 10.7 306 12.1 100440 66
2005-03-22 09:13:43 51°10.288 2°40.276 10.9 304 12.1 100440 66
2005-03-22 09:13:47 51°10.283 2°40.253 9.8 305 12.1 100440 66
2005-03-22 09:13:51 51°10.279 2°40.232 10.5 311 12.1 100440 67
2005-03-22 09:13:56 51°10.274 2°40.209 11.1 301 12.1 100440 67
2005-03-22 09:14:03 51°10.268 2°40.173 11.9 300 12.1 100440 67
2005-03-22 09:14:07 51°10.263 2°40.149 11.3 303 12.1 100440 67
2005-03-22 09:14:12 51°10.258 2°40.123 11 301 12.1 100440 67
2005-03-22 09:14:17 51°10.254 2°40.1 9.6 303 12.1 100440 67
2005-03-22 09:14:23 51°10.248 2°40.068 11.3 307 12.1 100430 67
2005-03-22 09:14:27 51°10.243 2°40.045 10.4 306 12.1 100430 67
2005-03-22 09:14:31 51°10.24 2°40.024 10.3 303 12.1 100440 67
2005-03-22 09:14:35 51°10.236 2°40.003 10.3 307 12.1 100440 67
2005-03-22 09:14:43 51°10.229 2°39.964 10.6 304 12.1 100440 67
2005-03-22 09:14:47 51°10.224 2°39.941 9.7 306 12.1 100440 67
2005-03-22 09:14:51 51°10.221 2°39.92 9.6 309 12.1 100440 66
2005-03-22 09:14:57 51°10.215 2°39.888 9.6 305 12.1 100440 66
2005-03-22 09:15:02 51°10.209 2°39.863 10.3 304 12.1 100430 66
2005-03-22 09:15:07 51°10.204 2°39.837 10.4 305 12.1 100430 66
2005-03-22 09:15:12 51°10.199 2°39.812 10.9 304 12.1 100440 66
2005-03-22 09:15:17 51°10.195 2°39.788 10.9 303 12.1 100440 66
2005-03-22 09:15:22 51°10.19 2°39.759 11 303 12.1 100440 66
2005-03-22 09:15:27 51°10.185 2°39.733 11 306 12.1 100440 66
2005-03-22 09:15:33 51°10.18 2°39.705 10.7 306 12.1 100440 66
2005-03-22 09:15:37 51°10.176 2°39.684 11.2 307 12.1 100440 66
2005-03-22 09:15:42 51°10.171 2°39.656 10.4 310 12.1 100440 66
2005-03-22 09:15:47 51°10.166 2°39.63 11.4 306 12.1 100440 66
2005-03-22 09:15:52 51°10.162 2°39.606 10.7 304 12.1 100450 66
2005-03-22 09:15:56 51°10.158 2°39.586 11.5 302 12.1 100450 66
2005-03-22 09:16:03 51°10.151 2°39.55 10.3 312 12.1 100440 66
2005-03-22 09:16:07 51°10.147 2°39.526 9.6 309 12.1 100440 66
2005-03-22 09:16:12 51°10.143 2°39.502 9.6 307 12.1 100440 66
2005-03-22 09:16:18 51°10.137 2°39.471 9.9 307 12.1 100440 66
2005-03-22 09:16:23 51°10.132 2°39.446 9.6 309 12.1 100450 67
2005-03-22 09:16:27 51°10.127 2°39.422 10.6 306 12.1 100450 67
2005-03-22 09:16:33 51°10.122 2°39.394 10.2 311 12.1 100450 67
2005-03-22 09:16:37 51°10.118 2°39.373 9.9 307 12.1 100450 67
2005-03-22 09:16:43 51°10.112 2°39.342 9.4 306 12.1 100440 67
2005-03-22 09:16:48 51°10.107 2°39.316 9.7 308 12.1 100440 67
2005-03-22 09:16:52 51°10.103 2°39.295 9.3 307 12.1 100440 67
2005-03-22 09:16:56 51°10.099 2°39.275 10.3 308 12.1 100440 67
2005-03-22 09:17:03 51°10.092 2°39.239 9.6 310 12.1 100450 67
2005-03-22 09:17:07 51°10.087 2°39.215 9.9 306 12.1 100450 67
2005-03-22 09:17:12 51°10.083 2°39.192 8.5 307 12.1 100440 67
2005-03-22 09:17:17 51°10.077 2°39.166 9.2 310 12.1 100440 67
2005-03-22 09:17:22 51°10.072 2°39.138 9.4 313 12.1 100450 67
2005-03-22 09:17:27 51°10.067 2°39.112 9.5 310 12.1 100450 67
2005-03-22 09:17:32 51°10.062 2°39.086 8.7 308 12.1 100440 67
2005-03-22 09:17:37 51°10.057 2°39.06 9.2 306 12.1 100440 67
2005-03-22 09:17:42 51°10.052 2°39.034 9.9 307 12 100440 67
2005-03-22 09:17:47 51°10.047 2°39.008 9.2 306 12 100440 67
2005-03-22 09:17:53 51°10.042 2°38.98 9.2 309 12 100450 67
2005-03-22 09:17:56 51°10.039 2°38.962 9.1 310 12 100450 67
2005-03-22 09:18:02 51°10.033 2°38.931 9.2 309 12 100450 67
2005-03-22 09:18:07 51°10.028 2°38.907 9.3 310 12 100450 67
2005-03-22 09:18:12 51°10.023 2°38.879 8.8 312 12 100450 67
2005-03-22 09:18:17 51°10.018 2°38.856 8.7 310 12 100450 67
2005-03-22 09:18:21 51°10.015 2°38.835 10.7 305 12 100450 67
2005-03-22 09:18:28 51°10.008 2°38.798 9.6 308 12 100450 67
2005-03-22 09:18:32 51°10.004 2°38.777 9.6 308 12 100440 67
2005-03-22 09:18:37 51°9.999 2°38.751 10.1 311 12 100440 67
2005-03-22 09:18:41 51°9.995 2°38.73 10.2 308 12 100450 67
2005-03-22 09:18:48 51°9.988 2°38.694 9.7 311 12 100450 67
2005-03-22 09:18:53 51°9.983 2°38.669 10 308 11.9 100440 67
2005-03-22 09:18:57 51°9.979 2°38.648 9.7 308 11.9 100440 67
2005-03-22 09:19:02 51°9.974 2°38.62 9.8 310 12 100440 67
2005-03-22 09:19:07 51°9.969 2°38.594 10.5 311 12 100440 67
2005-03-22 09:19:12 51°9.965 2°38.57 9.3 309 12 100450 67
2005-03-22 09:19:17 51°9.96 2°38.544 9.6 314 12 100450 67
2005-03-22 09:19:21 51°9.955 2°38.521 9.4 315 12 100450 67
2005-03-22 09:19:28 51°9.949 2°38.487 9.4 227 12 100450 67
2005-03-22 09:19:32 51°9.945 2°38.465 10 316 12 100440 67
2005-03-22 09:19:37 51°9.94 2°38.438 8.9 40 12 100440 67
2005-03-22 09:19:42 51°9.935 2°38.413 9.5 315 11.9 100450 67
2005-03-22 09:19:47 51°9.931 2°38.386 9.8 229 11.9 100450 67
2005-03-22 09:19:53 51°9.925 2°38.358 9.6 228 11.9 100450 67
2005-03-22 09:19:57 51°9.921 2°38.334 9 316 11.9 100450 67
2005-03-22 09:20:02 51°9.916 2°38.308 10.1 42 11.9 100450 67
2005-03-22 09:20:07 51°9.912 2°38.283 9.5 43 11.9 100450 67
2005-03-22 09:20:13 51°9.906 2°38.254 9.5 315 11.9 100460 67
2005-03-22 09:20:17 51°9.903 2°38.233 10.1 315 11.9 100460 67
2005-03-22 09:20:21 51°9.898 2°38.21 10.1 315 11.9 100460 67
2005-03-22 09:20:27 51°9.893 2°38.179 10.5 316 11.9 100460 67
2005-03-22 09:20:32 51°9.888 2°38.154 10.9 225 11.9 100450 67
2005-03-22 09:20:37 51°9.884 2°38.13 10.6 314 11.9 100450 67
2005-03-22 09:20:41 51°9.879 2°38.106 11.4 229 11.9 100460 67
2005-03-22 09:20:47 51°9.874 2°38.078 11.4 314 11.9 100460 67
2005-03-22 09:20:52 51°9.869 2°38.05 11.4 314 11.9 100450 67
2005-03-22 09:20:57 51°9.865 2°38.027 12 312 11.9 100450 67
2005-03-22 09:21:02 51°9.859 2°37.999 12 313 11.9 100460 68
2005-03-22 09:21:07 51°9.855 2°37.973 10.7 315 11.9 100460 68
2005-03-22 09:21:12 51°9.85 2°37.947 11.9 318 11.9 100450 68
2005-03-22 09:21:17 51°9.846 2°37.924 11.2 315 11.9 100450 68
2005-03-22 09:21:23 51°9.84 2°37.893 11.9 41 11.9 100450 68
2005-03-22 09:21:27 51°9.836 2°37.87 10.6 42 11.9 100450 68
2005-03-22 09:21:33 51°9.831 2°37.842 10.5 226 11.9 100460 67
2005-03-22 09:21:37 51°9.826 2°37.818 11.3 319 11.9 100460 67
2005-03-22 09:21:43 51°9.821 2°37.791 12.2 315 11.9 100460 68
2005-03-22 09:21:47 51°9.817 2°37.767 11.5 309 11.9 100460 68
2005-03-22 09:21:52 51°9.812 2°37.742 11.2 43 11.9 100460 68
2005-03-22 09:21:57 51°9.807 2°37.716 11.2 313 11.9 100460 68
2005-03-22 09:22:02 51°9.803 2°37.693 11 43 11.9 100460 68
2005-03-22 09:22:07 51°9.798 2°37.667 10.9 43 11.9 100460 68
2005-03-22 09:22:13 51°9.793 2°37.636 10.6 43 11.9 100460 68
2005-03-22 09:22:17 51°9.789 2°37.612 9.9 43 11.9 100460 68
2005-03-22 09:22:22 51°9.784 2°37.586 10.1 41 12 100470 67
2005-03-22 09:22:27 51°9.78 2°37.56 9.4 42 12 100470 67
2005-03-22 09:22:32 51°9.776 2°37.537 10.3 318 12 100460 68
2005-03-22 09:22:38 51°9.77 2°37.506 10.3 227 12 100460 68
2005-03-22 09:22:42 51°9.766 2°37.483 9.7 231 12 100470 68
2005-03-22 09:22:47 51°9.762 2°37.458 10.1 229 12 100470 68
2005-03-22 09:22:52 51°9.757 2°37.431 10.4 42 12 100460 68
2005-03-22 09:22:57 51°9.752 2°37.405 10 231 12 100460 68
2005-03-22 09:23:02 51°9.748 2°37.38 9.1 314 12 100460 67
2005-03-22 09:23:07 51°9.743 2°37.354 9.1 318 12 100460 67
2005-03-22 09:23:13 51°9.738 2°37.326 9.7 320 11.9 100460 68
2005-03-22 09:23:17 51°9.734 2°37.305 9.5 313 11.9 100460 68
2005-03-22 09:23:22 51°9.729 2°37.277 9.3 43 11.9 100460 68
2005-03-22 09:23:27 51°9.725 2°37.252 9 43 11.9 100460 68
2005-03-22 09:23:32 51°9.72 2°37.228 9.5 315 11.9 100460 68
2005-03-22 09:23:37 51°9.716 2°37.203 9.1 228 11.9 100460 68
2005-03-22 09:23:42 51°9.711 2°37.174 9.2 319 11.9 100460 68
2005-03-22 09:23:47 51°9.706 2°37.151 10.2 324 11.9 100460 68
2005-03-22 09:23:53 51°9.701 2°37.12 10.3 318 11.9 100460 68
2005-03-22 09:23:57 51°9.698 2°37.1 9.1 325 11.9 100460 68
2005-03-22 09:24:02 51°9.693 2°37.071 9.8 330 11.9 100460 68
2005-03-22 09:24:07 51°9.688 2°37.045 9.1 327 11.9 100460 68
2005-03-22 09:24:13 51°9.683 2°37.017 9.4 324 11.9 100470 68
2005-03-22 09:24:17 51°9.678 2°36.994 9.1 328 11.9 100470 68
2005-03-22 09:24:22 51°9.674 2°36.969 10 324 11.9 100470 68
2005-03-22 09:24:27 51°9.67 2°36.943 9 325 11.9 100470 68
2005-03-22 09:24:33 51°9.665 2°36.915 9.3 329 11.9 100470 68
2005-03-22 09:24:37 51°9.661 2°36.892 9 329 11.9 100470 68
2005-03-22 09:24:43 51°9.655 2°36.864 9.7 327 11.9 100480 68
2005-03-22 09:24:47 51°9.651 2°36.841 9.5 325 11.9 100480 68
2005-03-22 09:24:52 51°9.647 2°36.816 10 324 11.9 100470 68
2005-03-22 09:24:57 51°9.643 2°36.793 10 327 11.9 100470 68
2005-03-22 09:25:03 51°9.638 2°36.762 10.2 325 11.9 100480 68
2005-03-22 09:25:07 51°9.633 2°36.739 10.6 326 11.9 100480 68
2005-03-22 09:25:12 51°9.63 2°36.716 9.6 327 11.9 100480 68
2005-03-22 09:25:16 51°9.625 2°36.694 9.8 324 11.9 100480 68
2005-03-22 09:25:22 51°9.62 2°36.663 9.5 333 11.9 100480 68
2005-03-22 09:25:27 51°9.615 2°36.638 9.2 331 11.9 100480 68
2005-03-22 09:25:32 51°9.61 2°36.613 9.5 334 11.9 100480 68
2005-03-22 09:25:37 51°9.606 2°36.59 9.8 332 11.9 100480 68
2005-03-22 09:25:42 51°9.602 2°36.563 9.6 329 11.9 100480 68
2005-03-22 09:25:47 51°9.596 2°36.536 10 333 11.9 100480 68
2005-03-22 09:25:53 51°9.591 2°36.508 9.2 335 11.9 100490 68
2005-03-22 09:25:57 51°9.587 2°36.488 9.3 330 11.9 100490 68
2005-03-22 09:26:03 51°9.582 2°36.457 8.9 326 11.9 100490 68
2005-03-22 09:26:07 51°9.578 2°36.434 8.6 328 11.9 100490 68
2005-03-22 09:26:12 51°9.574 2°36.411 9.4 335 11.9 100490 68
2005-03-22 09:26:18 51°9.568 2°36.38 9.3 331 11.9 100490 68
2005-03-22 09:26:22 51°9.564 2°36.358 9.8 329 11.9 100480 68
2005-03-22 09:26:28 51°9.559 2°36.329 9.5 332 11.9 100480 68
2005-03-22 09:26:33 51°9.554 2°36.304 9.4 330 11.9 100490 68
2005-03-22 09:26:37 51°9.551 2°36.284 9.1 334 11.9 100490 68
2005-03-22 09:26:43 51°9.546 2°36.254 9.1 334 11.9 100480 68
2005-03-22 09:26:47 51°9.541 2°36.231 9.4 330 11.9 100480 68
2005-03-22 09:26:53 51°9.537 2°36.203 9.7 332 11.9 100490 68
2005-03-22 09:26:57 51°9.533 2°36.182 9.9 326 11.9 100490 68
2005-03-22 09:27:02 51°9.528 2°36.154 10.3 326 11.9 100490 68
2005-03-22 09:27:07 51°9.524 2°36.129 10.3 328 11.9 100490 68
2005-03-22 09:27:12 51°9.52 2°36.105 9.9 327 11.8 100480 68
2005-03-22 09:27:18 51°9.514 2°36.072 9.9 327 11.8 100480 68
2005-03-22 09:27:22 51°9.51 2°36.052 9.6 328 11.8 100480 68
2005-03-22 09:27:27 51°9.506 2°36.027 9 328 11.8 100480 68
2005-03-22 09:27:31 51°9.502 2°36.006 9.9 328 11.8 100480 68
2005-03-22 09:27:38 51°9.496 2°35.973 9.6 331 11.8 100480 68
2005-03-22 09:27:43 51°9.492 2°35.947 9.7 328 11.8 100480 68
2005-03-22 09:27:47 51°9.488 2°35.923 10.6 327 11.8 100480 68
2005-03-22 09:27:52 51°9.484 2°35.9 10.6 327 11.9 100490 68
2005-03-22 09:27:57 51°9.478 2°35.871 9.5 325 11.9 100490 68
2005-03-22 09:28:03 51°9.474 2°35.844 9.1 332 11.9 100480 68
2005-03-22 09:28:07 51°9.47 2°35.822 9.7 327 11.9 100480 68
2005-03-22 09:28:13 51°9.465 2°35.793 9.8 328 11.9 100480 68
2005-03-22 09:28:18 51°9.46 2°35.768 9.6 326 11.9 100480 68
2005-03-22 09:28:22 51°9.456 2°35.745 10.2 326 11.9 100480 68
2005-03-22 09:28:27 51°9.451 2°35.719 10.1 324 11.9 100480 68
2005-03-22 09:28:33 51°9.447 2°35.691 9.8 328 11.9 100480 68
2005-03-22 09:28:37 51°9.443 2°35.671 9.6 323 11.9 100480 68
2005-03-22 09:28:43 51°9.438 2°35.64 9.5 325 11.9 100480 68
2005-03-22 09:28:48 51°9.433 2°35.615 9.1 329 11.9 100480 68
2005-03-22 09:28:53 51°9.428 2°35.59 9.7 327 11.9 100480 68
2005-03-22 09:28:57 51°9.425 2°35.569 8.6 330 11.9 100480 68
2005-03-22 09:29:03 51°9.419 2°35.539 8.8 326 11.9 100470 68
2005-03-22 09:29:08 51°9.414 2°35.513 9.3 328 11.9 100470 68
2005-03-22 09:29:12 51°9.41 2°35.49 9.5 327 11.9 100480 68
2005-03-22 09:29:17 51°9.407 2°35.467 9.8 329 11.9 100480 68
2005-03-22 09:29:22 51°9.401 2°35.439 9.4 330 11.9 100480 68
2005-03-22 09:29:27 51°9.397 2°35.413 9 326 11.9 100480 68
2005-03-22 09:29:31 51°9.393 2°35.393 9.4 325 11.9 100480 68
2005-03-22 09:29:37 51°9.388 2°35.366 9.1 327 11.9 100480 68
2005-03-22 09:29:42 51°9.384 2°35.34 8.9 327 11.9 100480 68
2005-03-22 09:29:47 51°9.379 2°35.312 9 327 11.9 100480 68
2005-03-22 09:29:51 51°9.375 2°35.292 8.6 327 12 100480 68
2005-03-22 09:29:57 51°9.369 2°35.261 8.8 322 12 100480 68
2005-03-22 09:30:03 51°9.365 2°35.232 8.1 324 11.9 100480 68
2005-03-22 09:30:07 51°9.361 2°35.209 8.8 322 11.9 100480 68
2005-03-22 09:30:13 51°9.356 2°35.181 8.6 321 12 100480 68
2005-03-22 09:30:17 51°9.352 2°35.157 8.2 324 12 100480 68
2005-03-22 09:30:23 51°9.347 2°35.13 7.9 325 11.9 100480 68
2005-03-22 09:30:27 51°9.343 2°35.107 8.7 316 11.9 100480 68
2005-03-22 09:30:32 51°9.338 2°35.082 8.1 324 12 100480 68
2005-03-22 09:30:37 51°9.333 2°35.055 8.2 321 12 100480 68
2005-03-22 09:30:42 51°9.328 2°35.031 7.9 322 11.9 100480 68
2005-03-22 09:30:47 51°9.324 2°35.008 7.9 318 11.9 100480 68
2005-03-22 09:30:53 51°9.319 2°34.978 8.6 317 11.9 100480 68
2005-03-22 09:30:57 51°9.315 2°34.957 7.9 318 11.9 100480 68
2005-03-22 09:31:01 51°9.31 2°34.934 8.2 318 11.9 100470 68
2005-03-22 09:31:07 51°9.306 2°34.906 8.3 319 11.9 100470 68
2005-03-22 09:31:11 51°9.301 2°34.883 9 317 11.9 100470 68
2005-03-22 09:31:17 51°9.297 2°34.854 8.8 318 11.9 100470 68
2005-03-22 09:31:22 51°9.292 2°34.826 8.8 320 12 100470 68
2005-03-22 09:31:27 51°9.288 2°34.8 9.4 317 12 100470 68
2005-03-22 09:31:32 51°9.283 2°34.775 8.9 319 12 100470 68
2005-03-22 09:31:37 51°9.279 2°34.752 8.7 318 12 100470 68
2005-03-22 09:31:43 51°9.274 2°34.721 8.3 321 12 100470 68
2005-03-22 09:31:47 51°9.27 2°34.698 8.5 321 12 100470 68
2005-03-22 09:31:52 51°9.265 2°34.672 8.6 322 12 100480 68
2005-03-22 09:31:58 51°9.26 2°34.643 8.6 323 12 100480 68
2005-03-22 09:32:03 51°9.256 2°34.618 9.1 322 12 100480 68
2005-03-22 09:32:07 51°9.252 2°34.595 9 322 12 100480 68
2005-03-22 09:32:12 51°9.247 2°34.569 8.8 322 12 100480 68
2005-03-22 09:32:18 51°9.242 2°34.541 8 321 12 100480 68
2005-03-22 09:32:23 51°9.238 2°34.515 8.6 324 12 100480 68
2005-03-22 09:32:27 51°9.234 2°34.493 8.5 321 12 100480 68
2005-03-22 09:32:32 51°9.23 2°34.467 9.4 317 12 100480 68
2005-03-22 09:32:37 51°9.225 2°34.441 9.2 320 12 100480 68
2005-03-22 09:32:43 51°9.22 2°34.413 9 317 12 100480 68
2005-03-22 09:32:47 51°9.216 2°34.391 8.9 321 12 100480 68
2005-03-22 09:32:53 51°9.211 2°34.363 8.2 322 12 100480 68
2005-03-22 09:32:57 51°9.207 2°34.342 9 324 12 100480 68
2005-03-22 09:33:02 51°9.203 2°34.314 8.5 327 11.9 100480 68
2005-03-22 09:33:08 51°9.198 2°34.285 8.5 329 11.9 100480 68
2005-03-22 09:33:11 51°9.195 2°34.27 7.8 328 11.9 100480 68
2005-03-22 09:33:17 51°9.189 2°34.239 8.4 323 11.9 100480 68
2005-03-22 09:33:22 51°9.185 2°34.212 8.3 323 11.9 100480 68
2005-03-22 09:33:27 51°9.18 2°34.186 9 320 11.9 100480 68
2005-03-22 09:33:33 51°9.175 2°34.158 8.8 320 11.9 100480 68
2005-03-22 09:33:37 51°9.171 2°34.138 8.1 319 11.9 100480 68
2005-03-22 09:33:43 51°9.166 2°34.108 8.3 318 11.9 100480 69
2005-03-22 09:33:47 51°9.161 2°34.085 8.5 319 11.9 100480 69
2005-03-22 09:33:52 51°9.156 2°34.059 8.6 320 11.9 100480 69
2005-03-22 09:33:58 51°9.15 2°34.031 7.5 322 11.9 100480 69
2005-03-22 09:34:02 51°9.146 2°34.011 7.8 323 11.9 100480 69
2005-03-22 09:34:07 51°9.141 2°33.986 8.1 321 11.9 100480 69
2005-03-22 09:34:13 51°9.135 2°33.956 7.7 322 12 100470 69
2005-03-22 09:34:17 51°9.13 2°33.933 8.2 323 12 100470 69
2005-03-22 09:34:23 51°9.124 2°33.906 8.6 322 12 100470 68
2005-03-22 09:34:27 51°9.12 2°33.884 9.1 321 12 100470 68
2005-03-22 09:34:32 51°9.115 2°33.858 8.7 317 12 100480 68
2005-03-22 09:34:37 51°9.11 2°33.831 8.4 318 12 100480 68
2005-03-22 09:34:42 51°9.105 2°33.806 9 321 12 100470 68
2005-03-22 09:34:47 51°9.099 2°33.781 8.3 320 12 100470 68
2005-03-22 09:34:52 51°9.095 2°33.759 8.4 322 12 100470 68
2005-03-22 09:34:56 51°9.09 2°33.736 8.4 322 12 100470 68
2005-03-22 09:35:03 51°9.083 2°33.701 8.8 323 12 100470 68
2005-03-22 09:35:07 51°9.079 2°33.681 8.5 323 12 100470 68
2005-03-22 09:35:13 51°9.073 2°33.653 9.3 323 12 100470 68
2005-03-22 09:35:17 51°9.069 2°33.633 8.8 322 12 100470 68
2005-03-22 09:35:22 51°9.063 2°33.605 8.2 323 12 100470 68